Overview Statistics Trail Chart Weather Telemetry Raw packets
 

This is the latest recevied weather packets stored in our database for station/object 4S6DRJ-13. If no packets are shown the sender has not sent any weather packets the latest 10 day(s).

<< 163 164 165 166 167 168 169 >>
Time Temp. Humidity Pressure Rain* Wind** Luminosity Snow
1788219164 26.67° C 90% 1007.2 hPa 0 mm 0 m/s 0 W/m² -
1788219103 26.67° C 90% 1007.2 hPa 0 mm 0.89 m/s, 131° 0 W/m² -
1788219043 26.67° C 90% 1007.2 hPa 0 mm 0.89 m/s, 115° 0 W/m² -
1788218981 26.67° C 90% 1007.4 hPa 0 mm 0.45 m/s, 125° 0 W/m² -
1788218921 26.67° C 90% 1007.2 hPa 0 mm 0 m/s 0 W/m² -
1788218859 26.67° C 90% 1007.5 hPa 0 mm 1.34 m/s, 120° 0 W/m² -
1788218798 26.67° C 90% 1007.2 hPa 0 mm 0.89 m/s, 113° 0 W/m² -
1788218754 26.67° C 90% 1007.3 hPa 0 mm 1.34 m/s, 141° 0 W/m² -
1788218676 26.67° C 90% 1007.2 hPa 0 mm 1.79 m/s, 172° 0 W/m² -
1788218616 26.67° C 90% 1007.3 hPa 0 mm 0.89 m/s, 157° 0 W/m² -
1788218554 26.67° C 90% 1007.2 hPa 0 mm 0.89 m/s, 136° 0 W/m² -
1788218493 26.67° C 90% 1007.3 hPa 0 mm 0.45 m/s, 168° 0 W/m² -
1788218434 26.67° C 90% 1007.2 hPa 0 mm 0.89 m/s, 124° 0 W/m² -
1788218372 26.67° C 90% 1007.4 hPa 0 mm 0.89 m/s, 135° 0 W/m² -
1788218311 26.67° C 90% 1007.2 hPa 0 mm 0.89 m/s, 153° 0 W/m² -
1788218250 26.67° C 90% 1007.5 hPa 0 mm 0.89 m/s, 154° 0 W/m² -
1788218190 26.67° C 90% 1007.3 hPa 0 mm 0.45 m/s, 154° 0 W/m² -
1788218128 26.67° C 90% 1007.2 hPa 0 mm 0.45 m/s, 148° 0 W/m² -
1788218068 26.67° C 90% 1007.4 hPa 0 mm 0.89 m/s, 130° 0 W/m² -
1788218006 26.67° C 90% 1007.3 hPa 0 mm 0 m/s 0 W/m² -
1788217945 26.67° C 90% 1007.2 hPa 0 mm 0 m/s 0 W/m² -
1788217884 26.67° C 90% 1007.1 hPa 0 mm 0.89 m/s, 137° 0 W/m² -
1788217824 26.67° C 90% 1007.2 hPa 0 mm 0.89 m/s, 105° 0 W/m² -
1788217762 26.67° C 90% 1007 hPa 0 mm 0.89 m/s, 106° 0 W/m² -
1788217702 26.67° C 90% 1007.1 hPa 0 mm 1.34 m/s, 151° 0 W/m² -

* Rain latest hour (hover to see other rain measurements)
** Current wind speed in m/s (hover to see current wind gust speed)